Ulawun Volcano
A wispy plume of steam rises from the Ulawun volcano on the Papua New Guinean island of New Britain in this photo-like Moderate Resolution Imaging Spectroradiometer (MODIS[img]http://earthobservatory.nasa.gov/NaturalHazards/Archi...
It's not the Hubble, but for Old DeKalb Road resident Stanley R. Hewlett, it's the next best thing. For more than a decade, Mr. Hewlett has embraced his passion for astronomy, first peering through his telescope from a deck off the rear of his house. Now, the Russell native and amateur astronomer can g...
Expand (749kb, 1280 x 1058) The little-known nebula IRAS 05437+2505 billows out among the bright stars and dark dust clouds that surround it in this striking image from the Hubble Space Telescope. It is located in the constellation of Taurus (the Bull), close to the central plane of our Milky Way gal...
Orbital elements: 2010 LA64 Earth MOID = 0.0941 AU Epoch 2010 July 23.0 TT = JDT 2455400.5 MPC M 76.02172 (2000.0) P Q n 0.70700643 Peri. 293.58399 -0.91598595 +0.21136909 a 1.2479211 Node 260.05137 -0.09905690 -0.94280189 e 0.1891407 Incl. 20.25650 -0.38878975 -0.25777451 P 1.39 H 23.3 G 0.15 U 8...
Orbital elements: 2010 LY63 Earth MOID = 0.0929 AU Epoch 2010 July 23.0 TT = JDT 2455400.5 MPC M 344.37806 (2000.0) P Q n 0.36642136 Peri. 353.98704 +0.91963365 +0.38850886 a 1.9341146 Node 342.79870 -0.35174032 +0.74917318 e 0.4310420 Incl. 11.26063 -0.17479327 +0.53647033 P 2.69 H 17.4 G 0.15 U...
Orbital elements: 2010 LB64 Earth MOID = 0.0548 AU Epoch 2010 July 23.0 TT = JDT 2455400.5 MPC M 13.01844 (2000.0) P Q n 0.62480707 Peri. 197.29539 +0.11222965 +0.61203918 a 1.3551023 Node 85.71010 -0.79334746 +0.52955457 e 0.2161080 Incl. 51.72279 -0.59833462 -0.58734998 P 1.58 H 21.6 G 0.15 U 8 [...
Orbital elements: 2010 LG64 Earth MOID = 0.1175 AU Epoch 2010 July 23.0 TT = JDT 2455400.5 MPC M 322.48254 (2000.0) P Q n 0.64687699 Peri. 29.68718 +0.91510452 -0.39603744 a 1.3241024 Node 352.36444 +0.15179266 +0.51240522 e 0.3544691 Incl. 34.75711 +0.37355415 +0.76196800 P 1.52 H 19.4 G 0.15 U 9...
Orbital elements: 2010 LF64 Earth MOID = 0.1878 AU Epoch 2010 July 23.0 TT = JDT 2455400.5 MPC M 13.89822 (2000.0) P Q n 0.63290936 Peri. 237.70917 -0.23938854 +0.96541135 a 1.3435125 Node 19.26662 -0.75177822 -0.11696528 e 0.1593867 Incl. 18.24678 -0.61442871 -0.23302371 P 1.56 H 21.6 G 0.15 U 9 [...
NASA Ames' Cuzzi wins top honour for planetary work Jeff Cuzzi's office is buried deep in the maze that is NASA's Ames Research Centre. Its walls tell a lot about him. There are yellow sticky notes with important contact numbers and reminders, a poster of the Grand Tetons, a model of an asteroid, and a 1...
Proving that the mysteries of space attract dollars as well as enthusiasts, astronomer Christopher Tinney has picked up a million-dollar grant to search for worlds beyond our solar system.
"It's very pleasing to be successful in such a tough competition" - Dr Christopher Tinney, Ang...
New telescope for observatory The Alloway Observatory has a new instrument for peering into the depths of space. The observatory recently took delivery of a new 12-inch telescope imported from the United States at a cost of almost $7000. Observatory secretary and senior astronomer Lonnie Smilas...
The 8 - 18 metre wide asteroid 2007 EH will make a close pass (75.6 lunar distances, 0.1943 AU), travelling at 22.92 km/second, to the Earth-Moon system on the 14th August, 2010 @ 19:55 UT. See more The Lunar Distance (LD), th...